TimeCEST,TemperatureF,Dew PointF,Humidity,Sea Level PressureIn,VisibilityMPH,Wind Direction,Wind SpeedMPH,Gust SpeedMPH,PrecipitationIn,Events,Conditions,WindDirDegrees,DateUTC
12:55 AM,35.6,30.2,81,29.62,6.2,West,28.8,-,N/A,,Scattered Clouds,280,2013-05-23 22:55:00
1:55 AM,33.8,30.2,87,29.62,6.2,West,32.2,-,N/A,,Mostly Cloudy,280,2013-05-23 23:55:00
2:00 AM,35,31,80,,7,West,32.2,,,,Mostly Cloudy,280,2013-05-24 00:00:00
2:55 AM,33.8,32.0,93,29.53,0.0,West,36.8,-,N/A,Fog,Fog,280,2013-05-24 00:55:00
3:55 AM,32.0,30.2,93,29.50,0.0,West,32.2,-,N/A,Fog,Fog,280,2013-05-24 01:55:00
4:55 AM,32.0,30.2,93,29.50,0.0,WNW,31.1,-,N/A,Fog,Fog,290,2013-05-24 02:55:00
5:55 AM,32.0,30.2,93,29.47,0.0,WNW,29.9,-,N/A,Fog,Light Freezing Fog,290,2013-05-24 03:55:00
6:55 AM,30.2,28.4,93,29.44,-9999.0,WSW,34.5,-,N/A,Fog,Light Freezing Fog,250,2013-05-24 04:55:00
7:55 AM,30.2,28.4,93,29.44,-9999.0,WSW,33.4,-,N/A,Fog,Light Freezing Fog,250,2013-05-24 05:55:00
8:00 AM,29,28,97,,0,WSW,33.4,,,Snow,Light Snow,250,2013-05-24 06:00:00
8:55 AM,32.0,30.2,93,29.47,-9999.0,West,34.5,-,N/A,Fog,Light Freezing Fog,260,2013-05-24 06:55:00
9:55 AM,32.0,30.2,93,29.50,-9999.0,WSW,32.2,-,N/A,Fog,Fog,250,2013-05-24 07:55:00
1:55 PM,32.0,26.6,80,29.59,6.2,WSW,17.3,-,N/A,,Scattered Clouds,250,2013-05-24 11:55:00
2:00 PM,31,27,79,,12,WSW,17.3,,,,Partly Cloudy,250,2013-05-24 12:00:00
2:55 PM,32.0,26.6,80,29.62,6.2,WSW,16.1,-,N/A,,Scattered Clouds,250,2013-05-24 12:55:00
3:55 PM,32.0,28.4,87,29.62,6.2,WSW,18.4,-,N/A,,Scattered Clouds,250,2013-05-24 13:55:00
4:55 PM,33.8,28.4,81,29.65,6.2,WSW,17.3,-,N/A,,Scattered Clouds,250,2013-05-24 14:55:00
5:55 PM,33.8,28.4,81,29.65,6.2,WSW,16.1,-,N/A,,Scattered Clouds,250,2013-05-24 15:55:00
6:55 PM,33.8,28.4,81,29.65,0.7,WSW,15.0,-,N/A,,Overcast,250,2013-05-24 16:55:00
7:55 PM,32.0,28.4,87,29.68,0.0,WSW,17.3,-,N/A,Fog,Light Freezing Fog,250,2013-05-24 17:55:00
8:00 PM,32,29,85,,0,WSW,17.3,,,Fog,Heavy Fog,250,2013-05-24 18:00:00
8:55 PM,30.2,28.4,93,29.68,0.0,WSW,20.7,-,N/A,Fog,Light Freezing Fog,250,2013-05-24 18:55:00
9:55 PM,30.2,28.4,93,29.68,0.0,WSW,20.7,-,N/A,Fog,Light Freezing Fog,250,2013-05-24 19:55:00
10:55 PM,30.2,28.4,93,29.71,0.0,WSW,23.0,-,N/A,Fog,Light Freezing Fog,250,2013-05-24 20:55:00
11:55 PM,32.0,28.4,87,29.71,0.0,WSW,28.8,-,N/A,Fog,Light Freezing Fog,250,2013-05-24 21:55:00